Location: Borowce
(50.8255°N, 19.6209°E)
Time: 22:39:59
(UTC+00:00)

CENTAUR R/B - Pass Details

Date: 19 May 2025
Orbit: 645 x 1537 km, 63.4° (Epoch: 16 June)

Event Time Altitude Azimuth Distance (km) Brightness Sun altitude
Rises 21:23:34 0° 312° (NW) 3,991 6.8 -17.3°
Reaches altitude 10° 21:26:09 10° 317° (NW) 3,148 6.1 -17.5°
Maximum altitude 21:33:52 59° 36° (NE) 1,567 3.7 -17.8°
Drops below altitude 10° 21:42:54 10° 115° (ESE) 3,659 5.1 -18.2°
Enters shadow 21:44:26 - 117° (ESE) 4,143 5.4 -18.2°
